Monticello, KY

11:00 AM EST on December 13, 2019 (GMT -0500)
Wayne County

Weather History for KEKQ - November, 2019

Change the Weather History Date:

Friday, November 15, 2019

  Actual Average Record
Temperature  
Mean Temperature 38 °F -  
Max Temperature 48 °F 57 °F 78 °F (1964)
Min Temperature 28 °F 36 °F 8 °F (1969)
Degree Days  
Heating Degree Days 27    
Moisture  
Dew Point 27 °F    
Average Humidity 72    
Maximum Humidity 96    
Minimum Humidity 43    
Precipitation  
Precipitation 0.00 in - - ()
Sea Level Pressure  
Sea Level Pressure 30.31 in    
Wind  
Wind Speed 8 mph (North)    
Max Wind Speed 17 mph    
Max Gust Speed 21 mph    
Visibility 10 miles    
Events      
Averages and records for this station are not official NWS values.
T = Trace of Precipitation, MM = Missing Value Source: NWS Daily Summary

Daily Weather History Graph

Daily Weather History Graph

Search for Another Location

Airport or City:

Astronomy

Nov. 15, 2019 Rise Set
Actual Time 6:17 AM CST 4:30 PM CST
Civil Twilight 5:49 AM CST 4:57 PM CST
Nautical Twilight 5:18 AM CST 5:29 PM CST
Astronomical Twilight 4:47 AM CST 5:59 PM CST
Moon 7:07 PM CST (11/15) 9:10 AM CST (11/15)
Length of Visible Light 11h 07m
Length of Day
10h 12m
Waning Gibbous, 90% of the Moon is Illuminated
Nov 15
Waning Gibbous
Nov 19
Last Quarter
Nov 26
New
Dec 4
First Quarter
Dec 11
Full

Hourly Weather History & Observations

Time (CST) Temp. Windchill Dew Point Humidity Pressure Visibility Wind Dir Wind Speed Gust Speed Precip Events Conditions
12:56 AM 28.9 °F 23.9 °F 28.0 °F 96% 30.34 in 10.0 mi West 4.6 mph - N/A   Clear
1:56 AM 30.0 °F 26.5 °F 28.0 °F 92% 30.33 in 10.0 mi NW 3.5 mph - N/A   Clear
2:56 AM 28.9 °F 25.2 °F 28.0 °F 96% 30.32 in 10.0 mi Variable 3.5 mph - N/A   Clear
3:56 AM 28.9 °F 23.9 °F 27.0 °F 92% 30.33 in 10.0 mi Variable 4.6 mph - N/A   Clear
4:56 AM 28.9 °F - 27.0 °F 92% 30.33 in 10.0 mi Calm Calm - N/A   Clear
5:56 AM 28.9 °F 20.4 °F 27.0 °F 92% 30.34 in 10.0 mi NNE 9.2 mph - N/A   Clear
6:56 AM 28.0 °F 22.8 °F 27.0 °F 96% 30.37 in 10.0 mi Variable 4.6 mph - N/A   Clear
7:56 AM 37.0 °F 31.6 °F 28.0 °F 70% 30.36 in 10.0 mi Variable 6.9 mph 17.3 mph N/A   Clear
8:56 AM 39.0 °F - 28.0 °F 65% 30.37 in 10.0 mi North - - N/A   Clear
9:56 AM 42.1 °F 36.6 °F 27.0 °F 55% 30.35 in 10.0 mi North 9.2 mph 20.7 mph N/A   Clear
10:56 AM 45.0 °F 37.9 °F 27.0 °F 49% 30.33 in 10.0 mi NNE 16.1 mph 19.6 mph N/A   Clear
11:56 AM 46.0 °F 41.9 °F 28.0 °F 50% 30.31 in 10.0 mi NNW 8.1 mph 20.7 mph N/A   Clear
12:56 PM 48.0 °F - 28.0 °F 46% 30.29 in 10.0 mi NNE 15.0 mph 19.6 mph N/A   Clear
1:56 PM 48.0 °F - 28.9 °F 48% 30.27 in 10.0 mi NNE 16.1 mph - N/A   Clear
2:56 PM 48.9 °F - 27.0 °F 43% 30.26 in 10.0 mi North 15.0 mph 19.6 mph N/A   Clear
3:56 PM 48.0 °F - 27.0 °F 44% 30.26 in 10.0 mi North 17.3 mph - N/A   Clear
4:56 PM 43.0 °F 35.1 °F 28.0 °F 56% 30.28 in 10.0 mi NNE 17.3 mph - N/A   Clear
6:56 PM 37.9 °F 30.0 °F 28.0 °F 68% 30.31 in 10.0 mi North 12.7 mph - N/A   Clear
7:56 PM 37.0 °F 29.8 °F 27.0 °F 67% 30.30 in 10.0 mi NNW 10.4 mph 19.6 mph N/A   Clear
8:34 PM 33.8 °F 24.3 °F 26.6 °F 75% 30.29 in 10.0 mi NNE 13.8 mph - N/A   Clear
8:56 PM 33.1 °F 26.9 °F 26.1 °F 75% 30.31 in 10.0 mi Variable 6.9 mph - N/A   Clear
9:26 PM 33.8 °F 23.9 °F 26.6 °F 75% 30.30 in 10.0 mi NNE 15.0 mph - N/A   Clear
9:56 PM 33.1 °F 22.6 °F 27.0 °F 78% 30.30 in 10.0 mi NNE 16.1 mph - N/A   Clear
10:56 PM 30.0 °F 21.1 °F 26.1 °F 85% 30.30 in 10.0 mi NNW 10.4 mph - N/A   Clear
11:56 PM 30.0 °F 19.1 °F 26.1 °F 85% 30.28 in 10.0 mi NNE 15.0 mph - N/A   Clear